Regional Weather Roundup
Issued by NWS

Home | Current Version | Previous Version | Text Only | Print | Product List | Glossary On
Versions: 1 2 3 4 5 6 7 8 9 10 11 12 13 14 15 16 17 18 19 20 21 22 23 24 25 26 27 28 29 30 31 32 33 34 35 36 37 38 39 40 41 42 43 44 45 46 47 48 49 50
000
ASUS44 KOUN 292310
RWROK

WEATHER ROUNDUP FOR OKLAHOMA
NATIONAL WEATHER SERVICE NORMAN OK
600 PM CDT SUN MAY 29 2016

NOTE: "FAIR" INDICATES FEW OR NO CLOUDS BELOW 12,000 FEET WITH NO
      SIGNIFICANT WEATHER AND/OR OBSTRUCTIONS TO VISIBILITY.

OKZ001>007-009>012-014-015-017-300000-
NORTHWEST OKLAHOMA AND THE PANHANDLE

CITY           SKY/WX    TMP DP  RH WIND       PRES   REMARKS
GAGE           CLOUDY    71  48  43 SW23G36   30.06S
GUYMON         CLOUDY    71  44  37 S9        30.05F
ENID/WOODRING  CLOUDY    84  63  48 E14G20    30.01R
$$

OKZ016-021>023-033>039-044-045-300000-
SOUTHWEST OKLAHOMA

CITY           SKY/WX    TMP DP  RH WIND       PRES   REMARKS
LAWTON/REGL    CLOUDY    82  63  52 E5        30.01S
CLINTON        CLOUDY    77  52  41 NW9       30.08R
HOBART         LGT RAIN  79  60  52 VRB5      30.07R
ALTUS AFB      CLOUDY    79  61  53 SE3       30.02R
$$

OKZ018>020-024>031-300000-
CENTRAL OKLAHOMA

CITY           SKY/WX    TMP DP  RH WIND       PRES   REMARKS
OKLAHOMA CITY  PTSUNNY   84  62  47 SE9       30.01F
OKC/WILEY POST CLOUDY    86  57  37 SE15      30.00F
STILLWATER     SUNNY     82  64  54 E12       30.02S
GUTHRIE        CLOUDY    87  59  38 SE6       30.00S
$$

OKZ008-013-054>072-300000-
NORTHEAST OKLAHOMA

CITY           SKY/WX    TMP DP  RH WIND       PRES   REMARKS
TULSA          LGT RAIN  79  65  62 N9        30.00F
TULSA/JONES    MOSUNNY   81  66  60 VRB5      30.01F
PONCA CITY     SUNNY     79  61  53 NE10      30.04R
BARTLESVILLE   CLOUDY    73  67  81 NE7       30.05F
MUSKOGEE       CLOUDY    85  68  56 SE9       30.02F
$$

OKZ032-040>043-046>053-073>077-300000-
SOUTH CENTRAL/SOUTHEAST OKLAHOMA

CITY           SKY/WX    TMP DP  RH WIND       PRES   REMARKS
ARDMORE/DWNTWN CLOUDY    81  63  54 SE6       30.01F
MCALESTER      CLOUDY    82  70  66 CALM      30.03S
$$




USA.gov is the U.S. government's official web portal to all federal, state and local government web resources and services.